Location: *
(46.0770°N, 1.6444°E)
Time: 08:32:04
(UTC+00:00)

Meteor 1-22 Rocket - Pass Details

Date: 16 September 2019
Orbit: 786 x 942 km, 81.2° (Epoch: 13 October)

Event Time Altitude Azimuth Distance (km) Brightness Sun altitude
Exits shadow 20:27:36 56° 114° (ESE) 1,109 4.4 -24.4°
Maximum altitude 20:28:04 57° 95° (E) 1,094 4.4 -24.4°
Drops below altitude 10° 20:34:03 10° 18° (NNE) 2,669 7.0 -25.3°
Sets 20:36:35 0° 15° (NNE) 3,614 7.7 -25.7°
